[[{"header":{"parameterUnit":"m.s-1","parameterCategory":1,"la1":30.2991,"la2":30.254,"lo1":-89.0895,"lo2":-89.0444,"dy":0.0017,"dx":0.0017,"nx":28,"ny":28,"refTime":"2024-05-16T09:00:00:Z","depth":0,"parameterNumber":2,"parameterNumberName":"U-component_of_WINDS"},"data":[0,0,0,0,0,0,0,0,0,0,0,0,0,0,0,0,0,0,0,0,0,0,0,0,0,0,0,0,0,0,0,0,0,0,0,0,0,0,0,0,0,0,0,0,0,0,0,0,0,0,0,0,0,0,0,0,0,0,-1.6246,-1.6246,0,-1.63,-1.6301,-1.6301,-1.6328,-1.6328,-1.6328,-1.6328,-1.6384,-1.6385,-1.6387,0,0,0,0,0,0,0,0,0,0,0,0,0,-1.6167,-1.6169,-1.6246,-1.6247,-1.6247,-1.63,-1.6301,-1.6301,-1.6328,-1.6328,-1.6328,-1.6328,-1.6383,-1.6385,-1.6387,0,0,0,0,0,0,0,0,0,0,0,0,0,-1.6209,-1.6169,-1.6246,-1.6267,-1.6269,-1.63,-1.6301,-1.6302,-1.6328,-1.6328,-1.6328,-1.6328,-1.6383,-1.6385,-1.6387,-1.6401,0,0,-1.6394,-1.6395,0,0,0,0,0,0,0,0,-1.6207,-1.6212,-1.6263,-1.6265,-1.6268,-1.6307,-1.6293,-1.6335,-1.6328,-1.6306,-1.6328,-1.6328,-1.6358,-1.6363,-1.6373,-1.6404,-1.6406,-1.6394,-1.6396,-1.6397,-1.6397,0,0,0,0,0,0,0,-1.6204,-1.621,-1.6267,-1.6264,-1.6267,-1.6274,-1.628,-1.6301,-1.6331,-1.6308,-1.631,-1.6316,-1.636,-1.6371,-1.6374,-1.6407,-1.6394,-1.6396,-1.6398,-1.6398,-1.6453,-1.6453,0,0,0,0,0,0,-1.6198,-1.6207,-1.6266,-1.6269,-1.6237,-1.6276,-1.6282,-1.6295,-1.6331,-1.6337,-1.6316,-1.6317,-1.6367,-1.6372,-1.6376,-1.6395,-1.6397,-1.6399,-1.64,-1.6453,-1.6453,-1.6453,0,0,0,0,0,0,-1.6196,-1.6202,-1.6263,-1.6239,-1.6247,-1.6277,-1.6291,-1.6296,-1.6307,-1.6337,-1.6343,-1.6321,-1.6367,-1.6373,-1.6395,-1.6398,-1.64,-1.6402,-1.6453,-1.6453,-1.6453,-1.6433,0,0,0,0,0,0,-1.6193,-1.6202,-1.6207,-1.6239,-1.6248,-1.628,-1.6291,-1.6297,-1.631,-1.6312,-1.6344,-1.6349,-1.6367,-1.6391,-1.6397,-1.6401,-1.6403,-1.6452,-1.6453,-1.6453,-1.6434,-1.6433,-1.6432,0,0,0,0,0,-1.619,-1.6199,-1.6207,-1.6214,-1.6255,-1.628,-1.6286,-1.6307,-1.631,-1.6316,-1.6336,-1.6348,-1.6397,-1.6393,-1.64,-1.6404,-1.6452,-1.6453,-1.6453,-1.6434,-1.6433,-1.6432,0,0,0,0,0,0,-1.6166,-1.6203,-1.6212,-1.6231,-1.6253,-1.6285,-1.6292,-1.6305,-1.6325,-1.6326,-1.6352,-1.6359,-1.6378,-1.6394,-1.6389,-1.642,-1.6426,-1.6427,-1.6409,-1.6408,-1.6407,-1.6403,-1.6405,0,0,0,0,0,-1.6163,-1.618,-1.6212,-1.6225,-1.6236,-1.6262,-1.6274,-1.6288,-1.6311,-1.632,-1.6342,-1.6364,-1.6385,-1.6397,-1.6418,-1.6436,-1.6444,-1.6443,-1.6442,-1.6441,-1.6442,-1.6454,-1.6454,-1.6454,-1.6454,-1.6454,0,0,-1.6156,-1.6179,-1.6188,-1.6221,-1.6239,-1.6257,-1.6269,-1.6287,-1.6301,-1.6323,-1.6345,-1.6362,-1.6388,-1.6409,-1.6419,-1.6422,-1.6444,-1.6441,-1.644,-1.6442,-1.6454,-1.6454,-1.6454,-1.6454,-1.6454,-1.6454,0,0,-1.6154,-1.6172,-1.6186,-1.6204,-1.6231,-1.6249,-1.6253,-1.6284,-1.6296,-1.6318,-1.6335,-1.6352,-1.6387,-1.6405,-1.6419,-1.6425,-1.6437,-1.6431,-1.6425,-1.6437,-1.6437,-1.6437,-1.6439,-1.644,-1.6432,-1.6432,-1.6432,0,-1.6142,-1.6169,-1.6191,-1.6209,-1.6223,-1.6245,-1.6259,-1.6276,-1.6308,-1.6318,-1.6322,-1.6366,-1.6385,-1.6411,-1.6412,-1.6423,-1.6428,-1.6427,-1.6435,-1.6435,-1.6436,-1.6438,-1.6439,-1.6431,-1.6431,-1.6431,-1.6431,0,-1.6154,-1.6172,-1.618,-1.6211,-1.6227,-1.6242,-1.6268,-1.6281,-1.6295,-1.6312,-1.6335,-1.636,-1.6386,-1.6393,-1.6406,-1.6421,-1.6422,-1.643,-1.6436,-1.6434,-1.6437,-1.6439,-1.643,-1.643,-1.643,-1.643,0,0,-1.6136,-1.618,-1.6183,-1.6197,-1.623,-1.6245,-1.6262,-1.6288,-1.6299,-1.6321,-1.6337,-1.6366,-1.6374,-1.639,-1.6406,-1.6416,-1.642,-1.6423,-1.6424,-1.6421,-1.6438,-1.6431,-1.6432,-1.6428,-1.6428,-1.6429,-1.6436,0,-1.6137,-1.6169,-1.619,-1.6214,-1.6231,-1.6253,-1.6268,-1.629,-1.6308,-1.6326,-1.6346,-1.6366,-1.6375,-1.6385,-1.6396,-1.6417,-1.6423,-1.6417,-1.6443,-1.6444,-1.6435,-1.6434,-1.6427,-1.6432,-1.6437,-1.6437,-1.6437,0,-1.6143,-1.6165,-1.619,-1.6222,-1.623,-1.6243,-1.6269,-1.6286,-1.6312,-1.6324,-1.6343,-1.6359,-1.6379,-1.6384,-1.6412,-1.6407,-1.642,-1.6432,-1.6433,-1.6436,-1.644,-1.6436,-1.6434,-1.6435,-1.6439,-1.6439,-1.6439,0,-1.6127,-1.6163,-1.6183,-1.6195,-1.6233,-1.6242,-1.6258,-1.6284,-1.6298,-1.6321,-1.6331,-1.6356,-1.637,-1.6389,-1.6412,-1.6413,-1.6438,-1.6445,-1.6449,-1.6449,-1.6453,-1.6452,-1.6452,-1.6462,-1.6461,-1.6461,-1.6461,0,-1.6127,-1.6141,-1.6177,-1.6189,-1.6206,-1.6231,-1.6248,-1.6266,-1.6289,-1.6306,-1.6327,-1.6342,-1.6372,-1.6391,-1.6409,-1.643,-1.6436,-1.6447,-1.6452,-1.6445,-1.6444,-1.6453,-1.6453,-1.6462,-1.6462,-1.6462,-1.6462,0,-1.6111,-1.6136,-1.6159,-1.6193,-1.6202,-1.6213,-1.6243,-1.6256,-1.6275,-1.6296,-1.6302,-1.6333,-1.6357,-1.6382,-1.6414,-1.6427,-1.6447,-1.6454,-1.6438,-1.6441,-1.6444,-1.6443,-1.645,-1.6452,-1.6459,-1.6459,-1.6459,0,-1.6109,-1.6121,-1.6156,-1.6169,-1.6185,-1.6205,-1.622,-1.6246,-1.6261,-1.6292,-1.6302,-1.6327,-1.6349,-1.6386,-1.6411,-1.6436,-1.6444,-1.6444,-1.6448,-1.6441,-1.6444,-1.6443,-1.6444,-1.6443,-1.6443,-1.6443,-1.6442,0,-1.6102,-1.6114,-1.6135,-1.616,-1.6178,-1.6199,-1.6221,-1.623,-1.6261,-1.6277,-1.6302,-1.6319,-1.6352,-1.6377,-1.6406,-1.6423,-1.6438,-1.6441,-1.6444,-1.6437,-1.6427,-1.6433,-1.6435,-1.6441,-1.6441,-1.6441,-1.6441,-1.6441,-1.6094,-1.6105,-1.6132,-1.6155,-1.6175,-1.6195,-1.621,-1.6231,-1.6252,-1.6281,-1.6296,-1.6321,-1.6348,-1.6388,-1.6405,-1.6425,-1.643,-1.6433,-1.6434,-1.6434,-1.6433,-1.6425,-1.6431,-1.6431,-1.6431,-1.6431,-1.6431,0,-1.6088,-1.6107,-1.6128,-1.6158,-1.6176,-1.6189,-1.6215,-1.6229,-1.6251,-1.6275,-1.6296,-1.6325,-1.635,-1.6378,-1.6405,-1.6416,-1.6424,-1.6422,-1.6421,-1.6425,-1.6427,-1.6422,-1.6416,-1.6416,-1.6416,-1.6416,-1.6416,-1.6416,-1.6087,-1.6108,-1.6123,-1.6154,-1.6174,-1.6198,-1.6211,-1.6231,-1.625,-1.6282,-1.6303,-1.6321,-1.6347,-1.6376,-1.64,-1.6408,-1.6417,-1.6413,-1.6423,-1.6424,-1.6425,-1.6426,-1.6422,-1.6415,-1.6415,-1.642,-1.642,-1.642]},{"header":{"parameterUnit":"m.s-1","parameterCategory":1,"la1":30.2991,"la2":30.254,"lo1":-89.0895,"lo2":-89.0444,"dy":0.0017,"dx":0.0017,"nx":28,"ny":28,"refTime":"2024-05-16T09:00:00:Z","depth":0,"parameterNumber":3,"parameterNumberName":"V-component_of_WINDS"},"data":[0,0,0,0,0,0,0,0,0,0,0,0,0,0,0,0,0,0,0,0,0,0,0,0,0,0,0,0,0,0,0,0,0,0,0,0,0,0,0,0,0,0,0,0,0,0,0,0,0,0,0,0,0,0,0,0,0,0,5.5917,5.5917,0,5.5911,5.5911,5.591,5.5808,5.5806,5.5803,5.5801,5.5794,5.5796,5.5798,0,0,0,0,0,0,0,0,0,0,0,0,0,5.5841,5.5843,5.5917,5.5917,5.5917,5.5911,5.5911,5.591,5.5809,5.5806,5.5803,5.58,5.5793,5.5796,5.5798,0,0,0,0,0,0,0,0,0,0,0,0,0,5.5859,5.5844,5.5917,5.5866,5.5861,5.5911,5.5911,5.591,5.581,5.5806,5.5802,5.5798,5.5792,5.5795,5.5799,5.5897,0,0,5.5809,5.581,0,0,0,0,0,0,0,0,5.5858,5.5862,5.5873,5.5869,5.5864,5.5856,5.5881,5.5906,5.5811,5.5829,5.5801,5.5796,5.5818,5.5819,5.5826,5.5897,5.5897,5.5809,5.5811,5.5813,5.5814,0,0,0,0,0,0,0,5.5857,5.5861,5.5914,5.5874,5.5868,5.5843,5.5841,5.5885,5.5845,5.5827,5.582,5.582,5.5814,5.5823,5.5825,5.5897,5.5809,5.5812,5.5814,5.5816,5.6048,5.6052,0,0,0,0,0,0,5.5863,5.5861,5.5915,5.5914,5.5851,5.5847,5.5845,5.5863,5.5844,5.5838,5.5824,5.5816,5.5819,5.5821,5.5824,5.5938,5.5813,5.5816,5.5818,5.6044,5.6049,5.6054,0,0,0,0,0,0,5.5862,5.5869,5.5915,5.5886,5.589,5.5853,5.5873,5.5865,5.5873,5.5842,5.5834,5.584,5.5816,5.582,5.588,5.5937,5.5817,5.582,5.6039,5.6046,5.6052,5.6168,0,0,0,0,0,0,5.586,5.5869,5.5906,5.5887,5.5892,5.5971,5.5877,5.5867,5.5879,5.5869,5.5855,5.5849,5.5813,5.5876,5.5883,5.5939,5.5823,5.6034,5.6042,5.605,5.6159,5.6177,5.6193,0,0,0,0,0,5.5857,5.5939,5.5908,5.5915,5.5937,5.5974,5.5977,5.5934,5.5884,5.5921,5.5901,5.5849,5.593,5.5883,5.5891,5.5948,5.603,5.604,5.6049,5.6151,5.6174,5.6193,0,0,0,0,0,0,5.5964,5.5935,5.5901,5.5979,5.598,5.5957,5.6002,5.596,5.5975,5.5964,5.5911,5.5909,5.5977,5.5969,5.5917,5.6043,5.5971,5.5982,5.6046,5.6067,5.6084,5.6084,5.5826,0,0,0,0,0,5.5997,5.603,5.6002,5.6074,5.6076,5.604,5.6054,5.6021,5.602,5.602,5.6005,5.6006,5.6031,5.6049,5.607,5.6157,5.6153,5.6201,5.6218,5.6233,5.6243,5.6289,5.631,5.6085,5.6085,5.6084,0,0,5.6064,5.6053,5.6076,5.6095,5.6092,5.6127,5.604,5.6081,5.6107,5.6026,5.6082,5.6071,5.6069,5.6143,5.6175,5.6138,5.6304,5.6245,5.6256,5.6259,5.63,5.6322,5.6341,5.6091,5.609,5.6089,0,0,5.6205,5.62,5.6258,5.6258,5.6255,5.623,5.6244,5.6228,5.6218,5.6273,5.6214,5.6244,5.6288,5.6289,5.6295,5.6438,5.6391,5.6447,5.6536,5.6582,5.6599,5.6615,5.6665,5.6684,5.6457,5.6458,5.6458,0,5.6289,5.634,5.6294,5.6339,5.6349,5.6278,5.6337,5.6339,5.6343,5.6351,5.631,5.6365,5.6359,5.6432,5.6467,5.6475,5.6489,5.6448,5.6601,5.6615,5.6629,5.6677,5.6696,5.6464,5.6464,5.6463,5.6462,0,5.6444,5.648,5.6528,5.6534,5.6549,5.6601,5.6563,5.6584,5.6551,5.653,5.6588,5.6578,5.6596,5.6611,5.6579,5.6681,5.6658,5.661,5.6536,5.6658,5.6702,5.672,5.6474,5.6472,5.647,5.6468,0,0,5.665,5.6631,5.665,5.6652,5.6644,5.6671,5.672,5.6738,5.6757,5.6763,5.6802,5.6842,5.6798,5.6805,5.6772,5.6812,5.6926,5.6759,5.6758,5.679,5.7037,5.7073,5.7095,5.6895,5.6898,5.6901,5.7037,0,5.6786,5.6868,5.6829,5.6916,5.6948,5.6883,5.6925,5.6925,5.6908,5.6933,5.6914,5.6944,5.6883,5.6887,5.6923,5.6904,5.6975,5.6894,5.6931,5.6933,5.6933,5.7118,5.7156,5.7285,5.7054,5.7057,5.7059,0,5.6955,5.6968,5.7059,5.7045,5.7057,5.7096,5.711,5.7135,5.7134,5.7119,5.7128,5.7086,5.7133,5.7061,5.7125,5.7071,5.7084,5.7078,5.7082,5.7083,5.7003,5.7124,5.7325,5.7344,5.7086,5.7084,5.7082,0,5.7096,5.7137,5.7196,5.72,5.7186,5.7215,5.721,5.7205,5.7219,5.7231,5.7239,5.7257,5.7267,5.7282,5.7246,5.7197,5.7315,5.724,5.7304,5.7305,5.7331,5.7329,5.7537,5.7341,5.734,5.734,5.734,0,5.7251,5.7309,5.7259,5.7296,5.7359,5.7313,5.7377,5.7365,5.7361,5.7394,5.7339,5.7371,5.7322,5.7349,5.7322,5.7379,5.7384,5.7373,5.7365,5.7378,5.7379,5.7385,5.7375,5.7345,5.7344,5.7343,5.7342,0,5.742,5.7389,5.7449,5.7431,5.7428,5.7475,5.7459,5.7492,5.7472,5.7514,5.7522,5.7489,5.7519,5.7485,5.7512,5.7493,5.7571,5.755,5.7571,5.7565,5.763,5.7625,5.7848,5.7875,5.7663,5.7665,5.7666,0,5.752,5.7563,5.755,5.7569,5.7567,5.7598,5.7611,5.7568,5.7585,5.7587,5.762,5.7645,5.7663,5.7713,5.7692,5.7713,5.7691,5.7768,5.7694,5.7706,5.7692,5.769,5.7694,5.7783,5.7786,5.7788,5.7789,0,5.7703,5.7685,5.7708,5.7725,5.7743,5.7755,5.7762,5.778,5.7736,5.7757,5.7787,5.7801,5.7828,5.7854,5.7869,5.7863,5.782,5.7813,5.7829,5.7842,5.7853,5.7848,5.7612,5.7808,5.7806,5.7805,5.7804,5.7803,5.784,5.7875,5.7872,5.7898,5.7899,5.7908,5.7938,5.7922,5.7946,5.7965,5.7938,5.7975,5.7973,5.7988,5.7988,5.8017,5.7984,5.8007,5.8012,5.8019,5.8028,5.7849,5.8019,5.8019,5.8018,5.8018,5.8017,0,5.8019,5.8014,5.8039,5.8051,5.8072,5.8029,5.8035,5.8056,5.8089,5.8091,5.811,5.8144,5.8169,5.8151,5.8171,5.8198,5.8178,5.8204,5.8202,5.8201,5.8057,5.8041,5.822,5.822,5.822,5.822,5.822,5.822,5.8115,5.8172,5.8155,5.8212,5.8206,5.8242,5.8249,5.8257,5.8258,5.8299,5.8319,5.8307,5.8301,5.8321,5.8342,5.8336,5.8346,5.838,5.8367,5.8231,5.8212,5.8192,5.8177,5.8382,5.8382,5.8509,5.851,5.8511]}]]